Location: Pedro
(43.9050°N, 104.3408°W)
Time: 22:04:30
(UTC+00:00)

Explorer 11/Cluster Stage 4 - Visible Passes

Search period start: 24 May 2022 00:00
Search period end: 03 June 2022 00:00
Orbit: 466 x 1252 km, 28.8° (Epoch: 23 May)

Date Brightness Start Highest point End Pass type
(mag) Time Alt. Az. Time Alt. Az. Time Alt. Az.
30 May 8.1 04:03:44 10° SSW 04:04:23 11° S 04:04:23 11° S visible
31 May 8.0 03:51:04 10° SSW 03:52:45 12° S 03:53:25 11° S visible
01 Jun 8.0 03:38:35 10° SSW 03:40:43 13° S 03:42:20 11° SSE visible
02 Jun 8.1 03:26:08 10° SW 03:28:40 14° S 03:31:00 10° SSE visible
